Orbital Elements at Epoch 2459200.5 (2020-Dec-17.0) TDB
Reference: JPL 20 (heliocentric ecliptic J2000)
Element | Value | Uncertainty (1-sigma) | Units |
e | .1361986727514672 | 4.165e-08 | |
a | 2.376984980248761 | 1.2604e-08 | au |
q | 2.053242780788707 | 9.9207e-08 | au |
i | 6.174162163245628 | 4.5594e-06 | deg |
node | 194.0265399353596 | 4.7571e-05 | deg |
peri | 21.70378721047271 | 5.145e-05 | deg |
M | 237.1822538071939 | 2.2033e-05 | deg |
tp | 2459657.163925779496 (2022-Mar-18.66392578) | 8.3923e-05 | TDB |
period | 1338.560740420491 3.66 | 1.0646e-05 2.915e-08 | d yr |
n | .2689455839612559 | 2.1391e-09 | deg/d |
Q | 2.700727179708815 | 1.432e-08 | au |
|
| | Orbit Determination Parameters
Additional Information
|